Starlink 11451

operational
NORAD ID: 62561 Int'l Des: 2025-006 Owner: SPXS Country: US Constellation: starlink
LEOCIRCULAR

About Starlink 11451

Description loading...

Live Position

Loading 3D Globe...

Upcoming Passes

Altitude History

Altitude vs Time

uPlot chart will show altitude changes over time

Two-Line Element Set

1 62561U 25006H 25301.49315801 .00318115 00000-0 23727-2 0 9997
2 62561 42.9996 216.5234 0002606 287.1061 72.9521 15.71002380 45814
Epoch: Oct 28, 2025 • Age: 21 hours

Current Status

Altitude 362.4 km
Velocity 7.69 km/s
Sub-Earth Point -31.75°S, 95.01°W
Launch Date Jan 10, 2025
Age 0.7 years
Type internet

Technical Details

Classification Payload
Mass 960.00 kg
Dry Mass 910.00 kg
Total Mass 960.00 kg
Length 0.30 m
Diameter 4.10 m
Span 29.00 m
Shape Box + pan
Manufacturer SPXS
Bus Type Starlink V2MD
Phase Status In Orbit
Owner/State SPXS/US

Large Constellations

Loading constellations...